NVA1003 SKLC-MPLP

Flight info

Callsign NVA1003
Flight time N/A
Altitude 10500
Route LCE DCT PML
Aircraft PA31/L-SDFGRY/S

Departure

Time 2026-04-22 19:16
Airport Antonio Roldán Betancur Airport (SKLC)

Arrival

Time N/A
Airport MPLP
Time Latitude Longitude Altitude Speed Heading
2026-04-22 19:05 7.81669 -76.71699 48 ft 0 kts 240°
2026-04-22 19:11 7.81668 -76.71700 48 ft 1 kts 238°
2026-04-22 19:12 7.81641 -76.71725 48 ft 9 kts 205°
2026-04-22 19:12 7.81596 -76.71775 47 ft 8 kts 237°
2026-04-22 19:12 7.81583 -76.71798 47 ft 2 kts 242°
2026-04-22 19:12 7.81574 -76.71812 46 ft 0 kts 241°
2026-04-22 19:13 7.81564 -76.71832 46 ft 9 kts 241°
2026-04-22 19:13 7.81469 -76.71816 46 ft 19 kts 148°
2026-04-22 19:13 7.81322 -76.71725 49 ft 28 kts 150°
2026-04-22 19:13 7.81126 -76.71611 51 ft 35 kts 149°
2026-04-22 19:14 7.80908 -76.71484 53 ft 33 kts 148°
2026-04-22 19:14 7.80723 -76.71375 53 ft 27 kts 149°
2026-04-22 19:14 7.80579 -76.71288 53 ft 21 kts 148°
2026-04-22 19:14 7.80464 -76.71215 53 ft 17 kts 131°
2026-04-22 19:15 7.80418 -76.71175 53 ft 9 kts 189°
2026-04-22 19:15 7.80422 -76.71201 53 ft 0 kts 329°
2026-04-22 19:15 7.80447 -76.71217 53 ft 27 kts 328°
2026-04-22 19:15 7.80866 -76.71463 64 ft 99 kts 327°
2026-04-22 19:16 7.81506 -76.71860 375 ft 107 kts 336°
2026-04-22 19:16 7.82105 -76.72212 902 ft 106 kts 321°
2026-04-22 19:16 7.82684 -76.72829 1248 ft 120 kts 309°
2026-04-22 19:16 7.83105 -76.73498 1836 ft 114 kts 313°
2026-04-22 19:17 7.83658 -76.74175 2225 ft 127 kts 308°
2026-04-22 19:17 7.83931 -76.75015 2801 ft 128 kts 283°
2026-04-22 19:17 7.84078 -76.75937 3246 ft 136 kts 281°
2026-04-22 19:17 7.84254 -76.76910 3672 ft 143 kts 291°
2026-04-22 19:18 7.84607 -76.77856 4181 ft 144 kts 290°
2026-04-22 19:18 7.84926 -76.78823 4637 ft 145 kts 293°
2026-04-22 19:18 7.85280 -76.79799 5099 ft 146 kts 293°
2026-04-22 19:18 7.85639 -76.80779 5561 ft 148 kts 293°
2026-04-22 19:19 7.86001 -76.81757 6019 ft 149 kts 293°
2026-04-22 19:19 7.86365 -76.82738 6475 ft 149 kts 293°
2026-04-22 19:19 7.86757 -76.83733 6932 ft 149 kts 302°
2026-04-22 19:19 7.87284 -76.84636 7379 ft 148 kts 303°
2026-04-22 19:20 7.87730 -76.85593 7826 ft 150 kts 288°
2026-04-22 19:20 7.88028 -76.86610 8258 ft 150 kts 289°
2026-04-22 19:20 7.88332 -76.87622 8684 ft 150 kts 288°
2026-04-22 19:20 7.88646 -76.88657 9113 ft 150 kts 288°
2026-04-22 19:21 7.88954 -76.89661 9523 ft 149 kts 288°
2026-04-22 19:21 7.89310 -76.90662 9930 ft 149 kts 296°
2026-04-22 19:21 7.89782 -76.91590 10326 ft 148 kts 301°
2026-04-22 19:21 7.90306 -76.92498 10721 ft 148 kts 301°
2026-04-22 19:22 7.90846 -76.93420 10986 ft 158 kts 301°
2026-04-22 19:22 7.91372 -76.94532 10926 ft 184 kts 289°
2026-04-22 19:22 7.91808 -76.95834 10913 ft 198 kts 288°
2026-04-22 19:22 7.92265 -76.97199 10909 ft 207 kts 288°
2026-04-22 19:23 7.92741 -76.98611 10907 ft 213 kts 289°
2026-04-22 19:23 7.93259 -77.00067 10906 ft 216 kts 289°
2026-04-22 19:23 7.93783 -77.01531 10906 ft 219 kts 289°
2026-04-22 19:23 7.94311 -77.02994 10906 ft 220 kts 289°
2026-04-22 19:24 7.94847 -77.04468 10906 ft 221 kts 289°
2026-04-22 19:24 7.95390 -77.05959 10906 ft 222 kts 289°
2026-04-22 19:24 7.95938 -77.07465 10906 ft 222 kts 289°
2026-04-22 19:24 7.96482 -77.08961 10905 ft 223 kts 289°
2026-04-22 19:25 7.97023 -77.10445 10906 ft 223 kts 289°
2026-04-22 19:25 7.97570 -77.11946 10906 ft 223 kts 289°
2026-04-22 19:25 7.98113 -77.13438 10906 ft 223 kts 289°
2026-04-22 19:25 7.98656 -77.14926 10906 ft 223 kts 289°
2026-04-22 19:26 7.99202 -77.16424 10906 ft 223 kts 289°
2026-04-22 19:26 7.99750 -77.17924 10906 ft 223 kts 289°
2026-04-22 19:26 8.00303 -77.19430 10906 ft 223 kts 289°
2026-04-22 19:26 8.00843 -77.20908 10906 ft 223 kts 289°
2026-04-22 19:27 8.01392 -77.22409 10906 ft 223 kts 289°
2026-04-22 19:27 8.01942 -77.23913 10906 ft 223 kts 289°
2026-04-22 19:27 8.02490 -77.25409 10906 ft 223 kts 289°
2026-04-22 19:27 8.03039 -77.26908 10906 ft 223 kts 289°
2026-04-22 19:28 8.03581 -77.28387 10906 ft 223 kts 290°
2026-04-22 19:28 8.04135 -77.29893 10906 ft 223 kts 290°
2026-04-22 19:28 8.04683 -77.31388 10906 ft 223 kts 290°
2026-04-22 19:28 8.05370 -77.32813 10904 ft 223 kts 304°
2026-04-22 19:29 8.06273 -77.34126 10902 ft 223 kts 310°
2026-04-22 19:29 8.07358 -77.35271 10848 ft 225 kts 309°
2026-04-22 19:29 8.08263 -77.36606 10775 ft 228 kts 301°
2026-04-22 19:29 8.09060 -77.38039 10703 ft 229 kts 297°
2026-04-22 19:30 8.09540 -77.39021 10655 ft 230 kts 295°
2026-04-22 19:30 8.10443 -77.41022 10560 ft 230 kts 293°
2026-04-22 19:30 8.11089 -77.42526 10490 ft 230 kts 293°
2026-04-22 19:30 8.11719 -77.44020 10420 ft 231 kts 292°
2026-04-22 19:31 8.12352 -77.45537 10350 ft 231 kts 292°
2026-04-22 19:31 8.12983 -77.47056 10313 ft 229 kts 292°
2026-04-22 19:31 8.13601 -77.48541 10414 ft 223 kts 292°
2026-04-22 19:31 8.14216 -77.50019 10450 ft 221 kts 292°
2026-04-22 19:32 8.14802 -77.51424 10455 ft 212 kts 292°
2026-04-22 19:32 8.15376 -77.52807 10454 ft 205 kts 292°
2026-04-22 19:32 8.15930 -77.54147 10454 ft 200 kts 292°
2026-04-22 19:32 8.16474 -77.55458 10455 ft 197 kts 292°
2026-04-22 19:33 8.17003 -77.56732 10456 ft 195 kts 292°
2026-04-22 19:33 8.17534 -77.58019 10456 ft 193 kts 292°
2026-04-22 19:33 8.18062 -77.59292 10456 ft 192 kts 292°
2026-04-22 19:33 8.18589 -77.60565 10456 ft 192 kts 292°
2026-04-22 19:34 8.19119 -77.61848 10458 ft 197 kts 292°
2026-04-22 19:34 8.19662 -77.63163 10458 ft 200 kts 292°
2026-04-22 19:34 8.20206 -77.64477 10458 ft 202 kts 292°
2026-04-22 19:34 8.20762 -77.65823 10456 ft 203 kts 292°
2026-04-22 19:35 8.21321 -77.67173 10455 ft 204 kts 292°
2026-04-22 19:35 8.21873 -77.68505 10454 ft 202 kts 292°
2026-04-22 19:35 8.22425 -77.69830 10453 ft 199 kts 292°
2026-04-22 19:35 8.22968 -77.71136 10454 ft 197 kts 292°
2026-04-22 19:36 8.23511 -77.72430 10454 ft 196 kts 294°
2026-04-22 19:36 8.24061 -77.73720 10455 ft 195 kts 291°
2026-04-22 19:36 8.24577 -77.74996 10454 ft 194 kts 292°
2026-04-22 19:36 8.25108 -77.76298 10331 ft 199 kts 292°
2026-04-22 19:37 8.25655 -77.77625 10134 ft 204 kts 292°
2026-04-22 19:37 8.26213 -77.78978 9943 ft 208 kts 292°
2026-04-22 19:37 8.26788 -77.80371 9752 ft 210 kts 292°
2026-04-22 19:37 8.27361 -77.81757 9587 ft 209 kts 292°
2026-04-22 19:38 8.27930 -77.83136 9445 ft 207 kts 293°
2026-04-22 19:38 8.28478 -77.84462 9298 ft 200 kts 292°
2026-04-22 19:38 8.29019 -77.85777 9143 ft 196 kts 293°
2026-04-22 19:38 8.29547 -77.87056 8986 ft 194 kts 293°
2026-04-22 19:39 8.30070 -77.88320 8828 ft 193 kts 293°
2026-04-22 19:39 8.30601 -77.89605 8671 ft 194 kts 293°
2026-04-22 19:39 8.31126 -77.90873 8518 ft 194 kts 293°
2026-04-22 19:39 8.31669 -77.92187 8271 ft 199 kts 293°
2026-04-22 19:40 8.32217 -77.93512 8000 ft 202 kts 294°
2026-04-22 19:40 8.32752 -77.94809 7727 ft 195 kts 294°
2026-04-22 19:40 8.33279 -77.96094 7434 ft 193 kts 294°
2026-04-22 19:40 8.33803 -77.97362 7120 ft 193 kts 294°
2026-04-22 19:41 8.34327 -77.98632 6805 ft 187 kts 294°
2026-04-22 19:41 8.34817 -77.99817 6421 ft 176 kts 294°
2026-04-22 19:41 8.35273 -78.00929 6023 ft 161 kts 295°
2026-04-22 19:41 8.35689 -78.01956 5622 ft 157 kts 295°
2026-04-22 19:42 8.36118 -78.02993 5226 ft 157 kts 296°
2026-04-22 19:42 8.36553 -78.04034 4832 ft 157 kts 296°
2026-04-22 19:42 8.36973 -78.05045 4449 ft 156 kts 296°
2026-04-22 19:42 8.37395 -78.06063 4065 ft 154 kts 287°
2026-04-22 19:43 8.38240 -78.08034 3299 ft 148 kts 290°
2026-04-22 19:43 8.38661 -78.08995 2917 ft 146 kts 291°
2026-04-22 19:43 8.39076 -78.09954 2535 ft 145 kts 291°
2026-04-22 19:44 8.39477 -78.10877 2164 ft 143 kts 291°
2026-04-22 19:44 8.39885 -78.11812 1787 ft 142 kts 290°
2026-04-22 19:44 8.40289 -78.12737 1412 ft 141 kts 291°
2026-04-22 19:44 8.40678 -78.13640 1059 ft 139 kts 291°
2026-04-22 19:45 8.41047 -78.14519 1124 ft 126 kts 285°
2026-04-22 19:45 8.40965 -78.15334 1146 ft 116 kts 233°
2026-04-22 19:45 8.40297 -78.15777 1138 ft 116 kts 201°
2026-04-22 19:45 8.39601 -78.16127 1065 ft 100 kts 201°
2026-04-22 19:46 8.38971 -78.16286 881 ft 89 kts 163°
2026-04-22 19:46 8.38494 -78.15957 687 ft 82 kts 112°
2026-04-22 19:46 8.38332 -78.15408 722 ft 83 kts 99°
2026-04-22 19:46 8.38227 -78.14842 674 ft 78 kts 81°
2026-04-22 19:47 8.38585 -78.14433 485 ft 84 kts 20°
2026-04-22 19:47 8.39146 -78.14275 354 ft 82 kts 14°
2026-04-22 19:47 8.39726 -78.14233 157 ft 84 kts
2026-04-22 19:47 8.40246 -78.14208 86 ft 58 kts
2026-04-22 19:48 8.40528 -78.14195 80 ft 11 kts 344°
2026-04-22 19:48 8.40525 -78.14219 77 ft 3 kts 189°
2026-04-22 19:48 8.40500 -78.14206 80 ft 9 kts 166°
2026-04-22 19:48 8.40445 -78.14239 79 ft 1 kts 205°
2026-04-22 19:49 8.40349 -78.14259 79 ft 15 kts 177°
2026-04-22 19:49 8.40272 -78.14248 81 ft 6 kts 174°
2026-04-22 19:49 8.40257 -78.14246 82 ft 0 kts 172°